[[{"header":{"parameterUnit":"m.s-1","parameterCategory":1,"la1":30.2991,"la2":30.254,"lo1":-89.0895,"lo2":-89.0444,"dy":0.0017,"dx":0.0017,"nx":28,"ny":28,"refTime":"2024-02-22T03:00:00:Z","depth":0,"parameterNumber":2,"parameterNumberName":"U-component_of_WINDS"},"data":[0,0,0,0,0,0,0,0,0,0,0,0,0,0,0,0,0,0,0,0,0,0,0,0,0,0,0,0,0,0,0,0,0,0,0,0,0,0,0,0,0,0,0,0,0,0,0,0,0,0,0,0,0,0,0,0,0,0,-1.3486,-1.3486,0,-1.3457,-1.3457,-1.3456,-1.3457,-1.3457,-1.3457,-1.3458,-1.3426,-1.3425,-1.3424,0,0,0,0,0,0,0,0,0,0,0,0,0,-1.3538,-1.3537,-1.3486,-1.3486,-1.3485,-1.3457,-1.3457,-1.3456,-1.3457,-1.3457,-1.3458,-1.3458,-1.3427,-1.3425,-1.3424,0,0,0,0,0,0,0,0,0,0,0,0,0,-1.3513,-1.3537,-1.3486,-1.3482,-1.3481,-1.3457,-1.3457,-1.3456,-1.3457,-1.3457,-1.3458,-1.3458,-1.3427,-1.3426,-1.3424,-1.3401,0,0,-1.3418,-1.3417,0,0,0,0,0,0,0,0,-1.3514,-1.3511,-1.3483,-1.3482,-1.3482,-1.3461,-1.3464,-1.3437,-1.3456,-1.3466,-1.3458,-1.3459,-1.3437,-1.3435,-1.3428,-1.3399,-1.3398,-1.3418,-1.3417,-1.3416,-1.3416,0,0,0,0,0,0,0,-1.3516,-1.3512,-1.3474,-1.3483,-1.3482,-1.3481,-1.3478,-1.3459,-1.3449,-1.3465,-1.3465,-1.3462,-1.3437,-1.343,-1.3427,-1.3398,-1.3418,-1.3417,-1.3415,-1.3415,-1.3345,-1.3344,0,0,0,0,0,0,-1.3519,-1.3514,-1.3475,-1.3474,-1.35,-1.3479,-1.3476,-1.3467,-1.3449,-1.3447,-1.3461,-1.3462,-1.3433,-1.3429,-1.3426,-1.3396,-1.3416,-1.3415,-1.3413,-1.3346,-1.3345,-1.3344,0,0,0,0,0,0,-1.352,-1.3516,-1.3476,-1.3494,-1.3489,-1.3478,-1.3468,-1.3466,-1.3459,-1.3446,-1.3444,-1.3456,-1.3433,-1.3429,-1.3406,-1.3395,-1.3414,-1.3412,-1.3347,-1.3346,-1.3345,-1.3337,0,0,0,0,0,0,-1.3522,-1.3516,-1.3508,-1.3493,-1.3488,-1.3458,-1.3467,-1.3465,-1.3456,-1.3456,-1.344,-1.3438,-1.3433,-1.3409,-1.3405,-1.3393,-1.3411,-1.3348,-1.3346,-1.3345,-1.3338,-1.3335,-1.3333,0,0,0,0,0,-1.3524,-1.3508,-1.3508,-1.3503,-1.3478,-1.3458,-1.3454,-1.3449,-1.3455,-1.3446,-1.3437,-1.3439,-1.3397,-1.3407,-1.3402,-1.3389,-1.3348,-1.3347,-1.3345,-1.3339,-1.3336,-1.3333,0,0,0,0,0,0,-1.3521,-1.3506,-1.3506,-1.3485,-1.3473,-1.3458,-1.3447,-1.3447,-1.3432,-1.3433,-1.3427,-1.3423,-1.34,-1.3393,-1.3404,-1.3364,-1.3373,-1.337,-1.337,-1.3367,-1.3365,-1.3367,-1.3409,0,0,0,0,0,-1.3518,-1.3504,-1.3491,-1.3474,-1.3467,-1.3458,-1.3449,-1.3446,-1.3433,-1.3428,-1.3418,-1.3404,-1.3388,-1.3377,-1.3362,-1.3337,-1.3332,-1.3325,-1.3323,-1.3321,-1.3318,-1.3302,-1.3298,-1.3339,-1.3339,-1.3339,0,0,-1.3512,-1.3502,-1.3493,-1.3473,-1.3463,-1.3447,-1.3454,-1.3438,-1.3425,-1.3425,-1.3403,-1.3395,-1.338,-1.3355,-1.3344,-1.3348,-1.3306,-1.3319,-1.3318,-1.3316,-1.33,-1.3296,-1.3292,-1.3337,-1.3338,-1.3338,0,0,-1.3492,-1.3484,-1.3467,-1.3457,-1.3442,-1.3436,-1.3431,-1.3416,-1.3411,-1.3389,-1.3388,-1.3372,-1.3345,-1.3333,-1.3323,-1.3296,-1.3296,-1.3291,-1.3279,-1.3263,-1.3259,-1.3256,-1.3244,-1.324,-1.3289,-1.3289,-1.3289,0,-1.3486,-1.3464,-1.3459,-1.3442,-1.3431,-1.3431,-1.3412,-1.3402,-1.3383,-1.3375,-1.338,-1.3344,-1.3334,-1.3305,-1.3298,-1.3291,-1.3284,-1.3293,-1.326,-1.3257,-1.3254,-1.3243,-1.3239,-1.3288,-1.3288,-1.3288,-1.3288,0,-1.3456,-1.344,-1.3428,-1.3408,-1.3397,-1.338,-1.337,-1.3359,-1.3356,-1.3349,-1.3325,-1.3312,-1.3292,-1.3286,-1.3283,-1.3256,-1.3258,-1.3262,-1.327,-1.325,-1.3239,-1.3235,-1.3287,-1.3288,-1.3288,-1.3288,0,0,-1.3435,-1.3412,-1.3407,-1.3397,-1.3379,-1.3366,-1.3347,-1.3328,-1.3318,-1.3304,-1.3286,-1.3262,-1.3264,-1.3253,-1.3249,-1.3235,-1.3211,-1.324,-1.3239,-1.3233,-1.3177,-1.3173,-1.3169,-1.3211,-1.321,-1.321,-1.3178,0,-1.3412,-1.338,-1.3373,-1.3345,-1.3328,-1.3326,-1.3309,-1.3295,-1.3287,-1.3271,-1.3262,-1.3243,-1.3249,-1.3242,-1.3228,-1.3217,-1.32,-1.322,-1.3193,-1.3192,-1.3196,-1.3163,-1.316,-1.3131,-1.3174,-1.3173,-1.3172,0,-1.3381,-1.3366,-1.3335,-1.3317,-1.331,-1.3295,-1.3276,-1.3261,-1.3244,-1.3239,-1.3225,-1.3222,-1.32,-1.321,-1.3179,-1.3193,-1.3181,-1.3174,-1.3172,-1.3169,-1.318,-1.3157,-1.3121,-1.3116,-1.3166,-1.3166,-1.3167,0,-1.3367,-1.3338,-1.3315,-1.3307,-1.3286,-1.3275,-1.3266,-1.325,-1.3238,-1.322,-1.3212,-1.3193,-1.3181,-1.3165,-1.3156,-1.3164,-1.3124,-1.3134,-1.3117,-1.3117,-1.3108,-1.3109,-1.3069,-1.3104,-1.3104,-1.3104,-1.3104,0,-1.3341,-1.3322,-1.3308,-1.3294,-1.3272,-1.3264,-1.3242,-1.3232,-1.3217,-1.32,-1.3197,-1.318,-1.3169,-1.3151,-1.3143,-1.3117,-1.3112,-1.3106,-1.3104,-1.3105,-1.3106,-1.3097,-1.3098,-1.3103,-1.3103,-1.3103,-1.3103,0,-1.3321,-1.3312,-1.3286,-1.3268,-1.3262,-1.3246,-1.323,-1.3215,-1.3206,-1.3184,-1.3178,-1.3163,-1.3141,-1.313,-1.3102,-1.3097,-1.3066,-1.3066,-1.3072,-1.3071,-1.3054,-1.3055,-1.3006,-1.2998,-1.3039,-1.3039,-1.3039,0,-1.3305,-1.329,-1.3269,-1.3257,-1.3247,-1.3229,-1.3216,-1.3207,-1.3194,-1.3172,-1.3159,-1.3136,-1.3118,-1.3081,-1.3067,-1.3045,-1.3044,-1.3028,-1.304,-1.3041,-1.3041,-1.3041,-1.3038,-1.3025,-1.3025,-1.3025,-1.3024,0,-1.3277,-1.3272,-1.3254,-1.3234,-1.3219,-1.3202,-1.3186,-1.3176,-1.3164,-1.3149,-1.3126,-1.3111,-1.3082,-1.3058,-1.3035,-1.3023,-1.3021,-1.3021,-1.3015,-1.3016,-1.3019,-1.3015,-1.3064,-1.3022,-1.3022,-1.3022,-1.3022,-1.3022,-1.3257,-1.3242,-1.3225,-1.3204,-1.3191,-1.3175,-1.3159,-1.3148,-1.3128,-1.3104,-1.3099,-1.3074,-1.3055,-1.3023,-1.301,-1.2989,-1.2992,-1.2985,-1.2983,-1.2981,-1.2979,-1.3023,-1.2985,-1.2985,-1.2985,-1.2985,-1.2985,0,-1.3226,-1.3215,-1.3196,-1.3173,-1.3156,-1.3155,-1.3136,-1.3122,-1.31,-1.3082,-1.3063,-1.3035,-1.3012,-1.2995,-1.2971,-1.2957,-1.2954,-1.295,-1.295,-1.2947,-1.2978,-1.2985,-1.2952,-1.2952,-1.2952,-1.2952,-1.2952,-1.2952,-1.3209,-1.3183,-1.3176,-1.3143,-1.3131,-1.3106,-1.3095,-1.3079,-1.3065,-1.3034,-1.3014,-1.3004,-1.2985,-1.2959,-1.2937,-1.2932,-1.2922,-1.2918,-1.2913,-1.2942,-1.2945,-1.2949,-1.2954,-1.2916,-1.2916,-1.2883,-1.2883,-1.2882]},{"header":{"parameterUnit":"m.s-1","parameterCategory":1,"la1":30.2991,"la2":30.254,"lo1":-89.0895,"lo2":-89.0444,"dy":0.0017,"dx":0.0017,"nx":28,"ny":28,"refTime":"2024-02-22T03:00:00:Z","depth":0,"parameterNumber":3,"parameterNumberName":"V-component_of_WINDS"},"data":[0,0,0,0,0,0,0,0,0,0,0,0,0,0,0,0,0,0,0,0,0,0,0,0,0,0,0,0,0,0,0,0,0,0,0,0,0,0,0,0,0,0,0,0,0,0,0,0,0,0,0,0,0,0,0,0,0,0,3.2414,3.2415,0,3.2509,3.251,3.2511,3.2504,3.2503,3.2502,3.25,3.2597,3.2601,3.2604,0,0,0,0,0,0,0,0,0,0,0,0,0,3.2229,3.2232,3.2414,3.2415,3.2416,3.2509,3.251,3.2511,3.2505,3.2503,3.2501,3.25,3.2596,3.26,3.2605,0,0,0,0,0,0,0,0,0,0,0,0,0,3.2315,3.2233,3.2414,3.2424,3.2426,3.2508,3.251,3.2512,3.2505,3.2503,3.2501,3.2499,3.2594,3.26,3.2605,3.2683,0,0,3.2623,3.2626,0,0,0,0,0,0,0,0,3.231,3.2322,3.2422,3.2424,3.2426,3.2493,3.248,3.2569,3.2505,3.2475,3.25,3.2498,3.2564,3.2572,3.2594,3.2688,3.2692,3.2624,3.2627,3.263,3.2631,0,0,0,0,0,0,0,3.2304,3.2317,3.2451,3.2423,3.2426,3.2425,3.2434,3.2497,3.253,3.2478,3.2477,3.2489,3.2565,3.2589,3.2597,3.2693,3.2624,3.2629,3.2632,3.2635,3.2858,3.2861,0,0,0,0,0,0,3.2296,3.2313,3.2448,3.2454,3.2362,3.243,3.2441,3.2473,3.2529,3.2536,3.249,3.2488,3.258,3.259,3.26,3.2697,3.263,3.2635,3.2638,3.2856,3.2859,3.2862,0,0,0,0,0,0,3.2292,3.2308,3.2445,3.2383,3.2401,3.2435,3.2472,3.2476,3.25,3.2539,3.2545,3.2509,3.2579,3.2592,3.2663,3.27,3.2638,3.2643,3.2853,3.2857,3.286,3.289,0,0,0,0,0,0,3.2286,3.2306,3.2336,3.2384,3.2404,3.2506,3.2474,3.248,3.2511,3.2508,3.2558,3.2564,3.2578,3.2655,3.2669,3.2707,3.2648,3.285,3.2855,3.2859,3.2886,3.2894,3.2901,0,0,0,0,0,3.228,3.234,3.2337,3.2354,3.2442,3.2508,3.252,3.2534,3.2513,3.2544,3.2569,3.2563,3.2693,3.2662,3.2678,3.2718,3.2848,3.2853,3.2859,3.2882,3.2892,3.2901,0,0,0,0,0,0,3.2294,3.2346,3.2344,3.2421,3.2461,3.2507,3.2545,3.2544,3.259,3.2586,3.2602,3.2614,3.2686,3.2709,3.2673,3.2798,3.2768,3.2777,3.278,3.279,3.2798,3.2791,3.2652,0,0,0,0,0,3.2306,3.2356,3.2398,3.2463,3.2482,3.2511,3.254,3.2548,3.2589,3.2606,3.2636,3.2676,3.2727,3.276,3.2808,3.2889,3.2901,3.2925,3.2932,3.2938,3.2946,3.2993,3.3005,3.288,3.288,3.288,0,0,3.2331,3.2366,3.2396,3.2466,3.2498,3.2549,3.2525,3.2579,3.2618,3.2614,3.2684,3.2708,3.2754,3.2831,3.2867,3.2853,3.2984,3.2945,3.295,3.2955,3.3,3.3012,3.3023,3.2884,3.2883,3.2882,0,0,3.2405,3.2435,3.2493,3.2526,3.2574,3.2593,3.2606,3.2654,3.267,3.274,3.2739,3.2786,3.2871,3.2905,3.2933,3.3022,3.3019,3.3038,3.3078,3.3124,3.3134,3.3142,3.3176,3.3188,3.3045,3.3045,3.3045,0,3.243,3.2508,3.2523,3.2579,3.2611,3.2611,3.267,3.2701,3.2762,3.2784,3.2768,3.2877,3.2908,3.2995,3.3017,3.3039,3.3057,3.3032,3.3131,3.314,3.3148,3.3181,3.3193,3.3047,3.3047,3.3047,3.3047,0,3.2538,3.2592,3.2633,3.2694,3.273,3.2787,3.2812,3.2847,3.2853,3.2873,3.2947,3.2984,3.3041,3.3062,3.3067,3.315,3.314,3.3127,3.3097,3.3162,3.3193,3.3205,3.305,3.3049,3.3049,3.3048,0,0,3.2622,3.2691,3.2706,3.2735,3.2789,3.2831,3.289,3.2946,3.2977,3.3019,3.307,3.3144,3.3133,3.3165,3.3175,3.3215,3.3285,3.3197,3.3198,3.3214,3.3381,3.3391,3.3405,3.3283,3.3286,3.3287,3.3378,0,3.2702,3.2805,3.2822,3.2913,3.2964,3.2966,3.3017,3.3056,3.3078,3.3125,3.3148,3.3201,3.3182,3.3202,3.3241,3.3268,3.3319,3.3262,3.3331,3.3334,3.3321,3.3421,3.3432,3.3515,3.339,3.3392,3.3393,0,3.2808,3.2855,3.2952,3.3002,3.3024,3.3069,3.3124,3.3168,3.3214,3.3227,3.3264,3.3269,3.3331,3.3299,3.3385,3.3346,3.3376,3.3393,3.3397,3.3405,3.3368,3.3433,3.3542,3.3555,3.3412,3.341,3.3409,0,3.2862,3.2949,3.3019,3.3043,3.3102,3.3135,3.3161,3.3204,3.3238,3.3285,3.3308,3.3362,3.3391,3.3434,3.3454,3.3428,3.354,3.3509,3.3554,3.3554,3.3578,3.3576,3.3694,3.3595,3.3595,3.3595,3.3594,0,3.295,3.301,3.3044,3.3087,3.3155,3.3174,3.324,3.3265,3.3304,3.3353,3.3357,3.3403,3.3427,3.3476,3.3493,3.3563,3.3576,3.359,3.3593,3.359,3.3589,3.361,3.3605,3.3598,3.3597,3.3596,3.3596,0,3.3021,3.3047,3.3123,3.3174,3.3188,3.3236,3.3279,3.3321,3.3343,3.3405,3.3421,3.3455,3.3515,3.3539,3.3611,3.3622,3.3704,3.3703,3.3689,3.369,3.3735,3.3731,3.3872,3.3893,3.3778,3.3779,3.378,0,3.3076,3.3123,3.3178,3.3212,3.3239,3.3292,3.3327,3.3348,3.3384,3.3441,3.3477,3.3536,3.3585,3.3679,3.3711,3.3767,3.3768,3.3814,3.3777,3.3773,3.3771,3.3769,3.3775,3.3821,3.3822,3.3823,3.3824,0,3.3172,3.3183,3.3233,3.3289,3.3331,3.3376,3.3419,3.3446,3.3474,3.3515,3.3576,3.3613,3.3688,3.3748,3.3806,3.3833,3.3834,3.3836,3.3849,3.3847,3.3838,3.3845,3.3709,3.3832,3.3831,3.3831,3.383,3.383,3.3238,3.328,3.3327,3.3384,3.3419,3.346,3.3503,3.3531,3.3583,3.3645,3.3654,3.372,3.3767,3.3845,3.3875,3.3928,3.3916,3.3935,3.3941,3.3946,3.395,3.3829,3.3938,3.3938,3.3938,3.3937,3.3937,0,3.3336,3.3366,3.3418,3.348,3.3525,3.3522,3.3571,3.3609,3.3667,3.371,3.3758,3.3829,3.3888,3.3925,3.3984,3.4019,3.4021,3.4034,3.4032,3.4039,3.3955,3.3938,3.4032,3.4032,3.4032,3.4032,3.4032,3.4032,3.3392,3.3464,3.3481,3.3571,3.3601,3.3666,3.3694,3.3733,3.3768,3.3847,3.3896,3.392,3.3962,3.4024,3.4078,3.4088,3.411,3.4124,3.4134,3.4055,3.4045,3.4036,3.402,3.4129,3.4129,3.4213,3.4214,3.4215]}]]